Watertown, SD

12:03 PM CDT on September 24, 2017 (GMT -0500)
Watertown Municipal

Weather History for KATY - July, 2013

Change the Weather History Date:

Wednesday, July 24, 2013

  Actual Average Record
Temperature  
Mean Temperature 67 °F 71 °F  
Max Temperature 79 °F 83 °F 109 °F (1940)
Min Temperature 54 °F 60 °F 44 °F (1905)
Degree Days  
Heating Degree Days 0 1  
Month to date heating degree days 2 11  
Since 1 June heating degree days 90 89  
Since 1 July heating degree days 2 11  
Cooling Degree Days 2 7  
Month to date cooling degree days 188 161  
Year to date cooling degree days 299 279  
Since 1 June cooling degree days 277 257  
Growing Degree Days 16 (Base 50)    
Moisture  
Dew Point 57 °F    
Average Humidity 71    
Maximum Humidity 93    
Minimum Humidity 48    
Precipitation  
Precipitation 0.00 in 0.09 in 2.06 in (1934)
Month to date precipitation 2.61 2.34  
Year to date precipitation 16.11 12.77  
Sea Level Pressure  
Sea Level Pressure 30.04 in    
Wind  
Wind Speed 5 mph (West)    
Max Wind Speed 13 mph    
Max Gust Speed 21 mph    
Visibility 10 miles    
Events      
T = Trace of Precipitation, MM = Missing Value Source: NWS Daily Summary

Daily Weather History Graph

Daily Weather History Graph

Search for Another Location

Airport or City:

Trip Planner

Search our weather history database for the weather conditions in past years. The results will help you decide how hot, cold, wet, or windy it might be!

Date:

Astronomy

Jul. 24, 2013 Rise Set
Actual Time 6:05 AM CDT 9:03 PM CDT
Civil Twilight 5:31 AM CDT 9:38 PM CDT
Nautical Twilight 4:46 AM CDT 10:22 PM CDT
Astronomical Twilight 3:53 AM CDT 11:14 PM CDT
Moon 9:59 PM CDT 8:36 AM CDT
Length of Visible Light 16h 07m
Length of Day
14h 58m
Waning Gibbous, 94% of the Moon is Illuminated
Jul 24
Waning Gibbous
Jul 29
Last Quarter
Aug 6
New
Aug 14
First Quarter
Aug 20
Full

Hourly Weather History & Observations

Time (CDT) Temp. Dew Point Humidity Pressure Visibility Wind Dir Wind Speed Gust Speed Precip Events Conditions
12:53 AM 59.0 °F 54.0 °F 83% 30.05 in 10.0 mi Calm Calm - N/A   Clear
1:53 AM 55.0 °F 53.1 °F 93% 30.06 in 10.0 mi NNE 3.5 mph - N/A   Clear
2:53 AM 54.0 °F 52.0 °F 93% 30.06 in 10.0 mi Calm Calm - N/A   Scattered Clouds
3:53 AM 55.9 °F 54.0 °F 93% 30.06 in 10.0 mi Calm Calm - N/A   Overcast
4:53 AM 55.0 °F 52.0 °F 89% 30.06 in 10.0 mi Calm Calm - N/A   Mostly Cloudy
5:53 AM 55.9 °F 53.1 °F 90% 30.08 in 10.0 mi North 3.5 mph - N/A   Mostly Cloudy
6:53 AM 57.0 °F 54.0 °F 89% 30.09 in 10.0 mi Calm Calm - N/A   Mostly Cloudy
7:53 AM 62.1 °F 55.0 °F 78% 30.09 in 10.0 mi Calm Calm - N/A   Scattered Clouds
8:53 AM 66.9 °F 55.9 °F 68% 30.09 in 10.0 mi WNW 4.6 mph - N/A   Clear
9:53 AM 69.1 °F 57.0 °F 65% 30.09 in 10.0 mi Variable 4.6 mph - N/A   Clear
10:53 AM 71.1 °F 57.0 °F 61% 30.08 in 10.0 mi WNW 6.9 mph - N/A   Clear
11:53 AM 73.0 °F 55.0 °F 53% 30.08 in 10.0 mi Variable 4.6 mph - N/A   Partly Cloudy
12:53 PM 73.9 °F 54.0 °F 50% 30.07 in 10.0 mi WSW 3.5 mph - N/A   Clear
1:53 PM 75.9 °F 57.0 °F 52% 30.06 in 10.0 mi Variable 5.8 mph - N/A   Partly Cloudy
2:53 PM 75.9 °F 57.0 °F 52% 30.05 in 10.0 mi Variable 4.6 mph - N/A   Mostly Cloudy
3:53 PM 77.0 °F 57.0 °F 50% 30.03 in 10.0 mi WNW 6.9 mph - N/A   Partly Cloudy
4:53 PM 78.1 °F 57.9 °F 50% 30.01 in 10.0 mi West 10.4 mph - N/A   Partly Cloudy
5:53 PM 77.0 °F 57.9 °F 52% 29.99 in 10.0 mi NW 4.6 mph - N/A   Partly Cloudy
6:53 PM 75.9 °F 59.0 °F 56% 29.98 in 10.0 mi WNW 3.5 mph - N/A   Clear
7:53 PM 75.9 °F 61.0 °F 60% 29.98 in 10.0 mi WSW 4.6 mph - N/A   Clear
8:53 PM 71.1 °F 62.1 °F 73% 29.97 in 10.0 mi SW 5.8 mph - N/A   Clear
9:53 PM 69.1 °F 62.1 °F 78% 29.98 in 10.0 mi SSW 6.9 mph - N/A   Clear
10:53 PM 69.1 °F 63.0 °F 81% 29.99 in 10.0 mi SSW 6.9 mph - N/A   Partly Cloudy
11:53 PM 68.0 °F 62.1 °F 81% 29.97 in 10.0 mi SW 8.1 mph - N/A   Scattered Clouds